TimeEST,TemperatureF,Dew PointF,Humidity,Sea Level PressureIn,VisibilityMPH,Wind Direction,Wind SpeedMPH,Gust SpeedMPH,PrecipitationIn,Events,Conditions,WindDirDegrees,DateUTC
12:53 AM,54.0,53.1,97,30.01,-9999.0,ENE,3.5,-,N/A,,Unknown,60,2012-12-08 05:53:00
1:53 AM,55.0,54.0,96,30.01,-9999.0,Calm,Calm,-,N/A,,Unknown,0,2012-12-08 06:53:00
2:53 AM,55.9,55.0,97,30.01,-9999.0,Calm,Calm,-,N/A,,Unknown,0,2012-12-08 07:53:00
3:53 AM,57.0,57.0,100,30.01,-9999.0,Calm,Calm,-,N/A,,Unknown,0,2012-12-08 08:53:00
4:53 AM,57.9,57.0,97,30.01,-9999.0,Variable,3.5,-,N/A,,Unknown,0,2012-12-08 09:53:00
5:53 AM,57.9,57.0,97,30.01,-9999.0,Variable,3.5,-,N/A,,Unknown,0,2012-12-08 10:53:00
6:53 AM,57.0,57.0,100,30.02,-9999.0,Calm,Calm,-,N/A,,Unknown,0,2012-12-08 11:53:00
7:53 AM,57.0,57.0,100,30.03,-9999.0,East,3.5,-,N/A,,Unknown,90,2012-12-08 12:53:00
8:53 AM,57.9,57.0,97,30.05,-9999.0,East,4.6,-,N/A,,Unknown,90,2012-12-08 13:53:00
9:53 AM,59.0,57.9,96,30.07,-9999.0,Calm,Calm,-,N/A,,Unknown,0,2012-12-08 14:53:00
10:53 AM,61.0,60.1,97,30.07,-9999.0,Calm,Calm,-,N/A,,Unknown,0,2012-12-08 15:53:00
11:53 AM,64.0,60.1,87,30.05,-9999.0,ESE,4.6,-,N/A,,Unknown,120,2012-12-08 16:53:00
12:53 PM,66.0,61.0,84,30.02,-9999.0,Calm,Calm,-,N/A,,Unknown,0,2012-12-08 17:53:00
1:53 PM,68.0,61.0,78,30.01,-9999.0,SE,5.8,-,N/A,,Unknown,140,2012-12-08 18:53:00
2:53 PM,70.0,62.1,76,30.00,-9999.0,Variable,4.6,-,N/A,,Unknown,0,2012-12-08 19:53:00
3:53 PM,70.0,62.1,76,30.00,-9999.0,SE,3.5,-,N/A,,Unknown,140,2012-12-08 20:53:00
4:53 PM,68.0,62.1,81,30.00,-9999.0,SSE,4.6,-,N/A,,Unknown,160,2012-12-08 21:53:00
5:53 PM,66.0,62.1,87,30.01,-9999.0,SSW,4.6,-,N/A,,Unknown,210,2012-12-08 22:53:00
6:53 PM,64.9,63.0,93,30.03,-9999.0,South,3.5,-,N/A,,Unknown,170,2012-12-08 23:53:00
7:53 PM,64.9,62.1,90,30.04,-9999.0,SE,4.6,-,N/A,,Unknown,140,2012-12-09 00:53:00
8:53 PM,64.0,62.1,93,30.06,-9999.0,Calm,Calm,-,N/A,,Unknown,0,2012-12-09 01:53:00
9:53 PM,64.0,62.1,93,30.06,-9999.0,SSE,4.6,-,N/A,,Unknown,160,2012-12-09 02:53:00
10:53 PM,64.0,62.1,93,30.07,-9999.0,ESE,3.5,-,N/A,,Unknown,110,2012-12-09 03:53:00
11:53 PM,63.0,62.1,97,30.07,-9999.0,ESE,3.5,-,N/A,,Unknown,120,2012-12-09 04:53:00